Вернуться в каталог

HUCSAT

АктивенЛюбительское радиоVLEO
NORAD 69796·PAYLOAD·🇺🇸 United States
Это название спутника еще не подтверждено официальными источниками.

Запущен Nov 20, 1998 с Baikonur Cosmodrome

Loading…

Ближайшие Пролёты (ближайшие 24 часа)

TLE

УстаревающийSource: Space-Track

Эпоха: Sep 12, 2026, 15:23 UTC

1 69796U 98067YL  26255.64162716  .00046128  00000-0  67040-3 0  9991
2 69796  51.6300 225.5583 0009175 140.1974 219.9692 15.55268567 11226

Отслеживайте HUCSAT в реальном времени с AllMySat

Download on the App Store